Time,TemperatureF,DewpointF,PressureIn,WindDirection,WindDirectionDegrees,WindSpeedMPH,WindSpeedGustMPH,Humidity,HourlyPrecipIn,Conditions,Clouds,dailyrainin,SoftwareType,DateUTC
2013-01-20 00:53:00,16.0,5.0,-100.00,NW,325,12.0,22.0,61,0.00,,,-99.99,,2013-01-20 06:53:00,
2013-01-20 01:02:00,16.0,5.0,-100.00,NW,325,12.0,22.0,61,0.00,,,-99.99,,2013-01-20 07:02:00,
2013-01-20 01:12:00,16.0,5.0,-100.00,NW,325,12.0,24.0,61,0.00,,,-99.99,,2013-01-20 07:12:00,
2013-01-20 01:22:00,16.0,5.0,-100.00,NW,325,9.0,23.0,61,0.00,,,-99.99,,2013-01-20 07:22:00,
2013-01-20 01:32:00,15.0,5.0,-100.00,NW,315,13.0,20.0,61,0.00,,,-99.99,,2013-01-20 07:32:00,
2013-01-20 01:42:00,15.0,5.0,-100.00,NW,315,13.0,20.0,61,0.00,,,-99.99,,2013-01-20 07:42:00,
2013-01-20 01:52:00,15.0,5.0,-100.00,WNW,295,14.0,17.0,62,0.00,,,-99.99,,2013-01-20 07:52:00,
2013-01-20 02:02:00,15.0,5.0,-100.00,WNW,295,14.0,17.0,62,0.00,,,-99.99,,2013-01-20 08:02:00,
2013-01-20 02:12:00,15.0,5.0,-100.00,NW,305,14.0,20.0,63,0.00,,,-99.99,,2013-01-20 08:12:00,
2013-01-20 02:22:00,15.0,5.0,-100.00,NW,310,14.0,22.0,63,0.00,,,-99.99,,2013-01-20 08:22:00,
2013-01-20 02:32:00,14.0,4.0,-100.00,NW,310,13.0,20.0,63,0.00,,,-99.99,,2013-01-20 08:32:00,
2013-01-20 02:42:00,14.0,4.0,-100.00,NW,310,13.0,20.0,63,0.00,,,-99.99,,2013-01-20 08:42:00,
2013-01-20 02:52:00,14.0,4.0,-100.00,NW,320,13.0,17.0,63,0.00,,,-99.99,,2013-01-20 08:52:00,
2013-01-20 03:02:00,14.0,4.0,-100.00,NW,320,13.0,17.0,63,0.00,,,-99.99,,2013-01-20 09:02:00,
2013-01-20 03:12:00,14.0,4.0,-100.00,WNW,300,7.0,17.0,63,0.00,,,-99.99,,2013-01-20 09:12:00,
2013-01-20 03:22:00,13.0,4.0,-100.00,WNW,295,12.0,19.0,63,0.00,,,-99.99,,2013-01-20 09:22:00,
2013-01-20 03:33:00,13.0,3.0,-100.00,NW,310,10.0,16.0,63,0.00,,,-99.99,,2013-01-20 09:33:00,
2013-01-20 03:41:00,13.0,3.0,-100.00,NW,305,14.0,17.0,64,0.00,,,-99.99,,2013-01-20 09:41:00,
2013-01-20 03:42:00,13.0,3.0,-100.00,NW,310,10.0,16.0,63,0.00,,,-99.99,,2013-01-20 09:42:00,
2013-01-20 03:52:00,13.0,3.0,-100.00,NW,305,14.0,17.0,64,0.00,,,-99.99,,2013-01-20 09:52:00,
2013-01-20 04:02:00,13.0,3.0,-100.00,NW,305,14.0,17.0,64,0.00,,,-99.99,,2013-01-20 10:02:00,
2013-01-20 04:12:00,13.0,3.0,-100.00,NW,305,14.0,17.0,64,0.00,,,-99.99,,2013-01-20 10:12:00,
2013-01-20 04:22:00,13.0,3.0,-100.00,NW,305,14.0,17.0,64,0.00,,,-99.99,,2013-01-20 10:22:00,
2013-01-20 04:32:00,13.0,3.0,-100.00,NW,305,14.0,17.0,64,0.00,,,-99.99,,2013-01-20 10:32:00,
2013-01-20 07:53:00,11.0,3.0,-100.00,NNW,330,7.0,-999.0,68,0.00,,,-99.99,,2013-01-20 13:53:00,
2013-01-20 08:02:00,11.0,3.0,-100.00,NNW,330,7.0,-999.0,68,0.00,,,-99.99,,2013-01-20 14:02:00,
2013-01-20 08:12:00,11.0,3.0,-100.00,North,350,7.0,11.0,68,0.00,,,-99.99,,2013-01-20 14:12:00,
2013-01-20 08:23:00,11.0,3.0,-100.00,NNW,340,7.0,11.0,68,0.00,,,-99.99,,2013-01-20 14:23:00,
2013-01-20 08:33:00,12.0,3.0,-100.00,NNW,330,9.0,11.0,68,0.00,,,-99.99,,2013-01-20 14:33:00,
2013-01-20 08:42:00,12.0,3.0,-100.00,NNW,330,9.0,11.0,68,0.00,,,-99.99,,2013-01-20 14:42:00,
2013-01-20 08:52:00,12.0,4.0,-100.00,NW,325,9.0,12.0,68,0.00,,,-99.99,,2013-01-20 14:52:00,
2013-01-20 09:03:00,12.0,4.0,-100.00,NW,325,9.0,12.0,68,0.00,,,-99.99,,2013-01-20 15:03:00,
2013-01-20 09:12:00,12.0,4.0,-100.00,NW,325,9.0,12.0,68,0.00,,,-99.99,,2013-01-20 15:12:00,
2013-01-20 09:23:00,12.0,4.0,-100.00,NW,325,9.0,12.0,68,0.00,,,-99.99,,2013-01-20 15:23:00,
2013-01-20 09:33:00,12.0,4.0,-100.00,NW,315,6.0,12.0,67,0.00,,,-99.99,,2013-01-20 15:33:00,
2013-01-20 09:42:00,12.0,4.0,-100.00,NW,315,6.0,12.0,67,0.00,,,-99.99,,2013-01-20 15:42:00,
2013-01-20 09:53:00,12.0,4.0,-100.00,North,355,8.0,14.0,67,0.00,,,-99.99,,2013-01-20 15:53:00,
2013-01-20 10:03:00,12.0,4.0,-100.00,North,355,8.0,14.0,67,0.00,,,-99.99,,2013-01-20 16:03:00,
2013-01-20 10:12:00,13.0,4.0,-100.00,North,350,9.0,15.0,68,0.00,,,-99.99,,2013-01-20 16:12:00,
2013-01-20 10:23:00,13.0,5.0,-100.00,North,350,9.0,12.0,69,0.00,,,-99.99,,2013-01-20 16:23:00,
2013-01-20 10:33:00,12.0,5.0,-100.00,NNW,345,10.0,13.0,72,0.03,,,-99.99,,2013-01-20 16:33:00,
2013-01-20 10:42:00,12.0,5.0,-100.00,NNW,345,10.0,13.0,72,0.03,,,-99.99,,2013-01-20 16:42:00,
2013-01-20 10:52:00,12.0,6.0,-100.00,NNW,340,5.0,11.0,75,0.01,,,-99.99,,2013-01-20 16:52:00,
2013-01-20 11:03:00,12.0,6.0,-100.00,NNW,340,5.0,11.0,75,0.01,,,-99.99,,2013-01-20 17:03:00,
2013-01-20 11:12:00,13.0,7.0,-100.00,NW,320,4.0,9.0,76,0.04,,,-99.99,,2013-01-20 17:12:00,
2013-01-20 11:22:00,13.0,7.0,-100.00,NW,320,5.0,9.0,77,0.01,,,-99.99,,2013-01-20 17:22:00,
2013-01-20 11:33:00,12.0,7.0,-100.00,NNW,340,5.0,8.0,78,0.06,,,-99.99,,2013-01-20 17:33:00,
2013-01-20 11:42:00,12.0,7.0,-100.00,NNW,340,5.0,8.0,78,0.06,,,-99.99,,2013-01-20 17:42:00,
2013-01-20 11:52:00,13.0,8.0,-100.00,NW,310,6.0,7.0,79,0.03,,,-99.99,,2013-01-20 17:52:00,
2013-01-20 12:03:00,13.0,8.0,-100.00,NW,310,6.0,7.0,79,0.03,,,-99.99,,2013-01-20 18:03:00,
2013-01-20 12:12:00,13.0,8.0,-100.00,NW,310,7.0,11.0,79,0.07,,,-99.99,,2013-01-20 18:12:00,
2013-01-20 12:23:00,13.0,8.0,-100.00,NNW,340,9.0,11.0,80,0.08,,,-99.99,,2013-01-20 18:23:00,
2013-01-20 12:33:00,13.0,9.0,-100.00,NNW,340,9.0,14.0,81,0.16,,,-99.99,,2013-01-20 18:33:00,
2013-01-20 12:42:00,13.0,9.0,-100.00,NNW,340,9.0,14.0,81,0.16,,,-99.99,,2013-01-20 18:42:00,
2013-01-20 12:53:00,14.0,9.0,-100.00,NNW,335,6.0,12.0,82,0.04,,,-99.99,,2013-01-20 18:53:00,
2013-01-20 13:02:00,14.0,9.0,-100.00,NNW,335,6.0,12.0,82,0.04,,,-99.99,,2013-01-20 19:02:00,
2013-01-20 13:12:00,14.0,9.0,-100.00,NNW,330,6.0,10.0,82,0.06,,,-99.99,,2013-01-20 19:12:00,
2013-01-20 13:22:00,14.0,10.0,-100.00,NNW,330,6.0,11.0,82,0.07,,,-99.99,,2013-01-20 19:22:00,
2013-01-20 13:33:00,14.0,9.0,-100.00,NW,325,7.0,11.0,82,0.07,,,-99.99,,2013-01-20 19:33:00,
2013-01-20 13:42:00,14.0,9.0,-100.00,NW,325,7.0,11.0,82,0.07,,,-99.99,,2013-01-20 19:42:00,
2013-01-20 13:52:00,15.0,10.0,-100.00,WNW,295,6.0,-999.0,82,0.04,,,-99.99,,2013-01-20 19:52:00,
2013-01-20 14:03:00,15.0,10.0,-100.00,WNW,295,6.0,-999.0,82,0.04,,,-99.99,,2013-01-20 20:03:00,
2013-01-20 14:12:00,14.0,10.0,-100.00,NNW,340,6.0,9.0,82,0.07,,,-99.99,,2013-01-20 20:12:00,
2013-01-20 14:22:00,14.0,9.0,-100.00,NNW,330,7.0,9.0,82,0.03,,,-99.99,,2013-01-20 20:22:00,
2013-01-20 14:33:00,14.0,10.0,-100.00,NW,320,6.0,10.0,82,0.04,,,-99.99,,2013-01-20 20:33:00,
2013-01-20 14:42:00,14.0,10.0,-100.00,NW,305,6.0,9.0,82,0.04,,,-99.99,,2013-01-20 20:42:00,
2013-01-20 14:53:00,14.0,10.0,-100.00,WNW,300,6.0,11.0,82,0.01,,,-99.99,,2013-01-20 20:53:00,
2013-01-20 15:03:00,14.0,10.0,-100.00,WNW,300,6.0,11.0,82,0.01,,,-99.99,,2013-01-20 21:03:00,
2013-01-20 15:13:00,14.0,10.0,-100.00,NNW,330,5.0,12.0,82,0.01,,,-99.99,,2013-01-20 21:13:00,
2013-01-20 15:22:00,14.0,10.0,-100.00,NW,305,6.0,9.0,82,0.01,,,-99.99,,2013-01-20 21:22:00,
2013-01-20 15:33:00,14.0,10.0,-100.00,NW,320,6.0,10.0,82,0.03,,,-99.99,,2013-01-20 21:33:00,
2013-01-20 15:43:00,14.0,10.0,-100.00,NW,320,6.0,10.0,82,0.03,,,-99.99,,2013-01-20 21:43:00,
2013-01-20 15:52:00,14.0,10.0,-100.00,NW,320,5.0,9.0,82,0.01,,,-99.99,,2013-01-20 21:52:00,
2013-01-20 16:03:00,14.0,10.0,-100.00,WNW,290,9.0,12.0,82,0.00,,,-99.99,,2013-01-20 22:03:00,
2013-01-20 16:12:00,14.0,9.0,-100.00,NW,320,9.0,16.0,82,0.00,,,-99.99,,2013-01-20 22:12:00,
2013-01-20 16:22:00,14.0,9.0,-100.00,NW,320,9.0,16.0,82,0.00,,,-99.99,,2013-01-20 22:22:00,
2013-01-20 16:33:00,13.0,9.0,-100.00,NW,320,7.0,14.0,81,0.00,,,-99.99,,2013-01-20 22:33:00,
2013-01-20 16:43:00,13.0,9.0,-100.00,NW,320,7.0,14.0,81,0.00,,,-99.99,,2013-01-20 22:43:00,
2013-01-20 16:52:00,13.0,8.0,-100.00,WNW,290,10.0,15.0,81,0.00,,,-99.99,,2013-01-20 22:52:00,
2013-01-20 17:03:00,13.0,8.0,-100.00,WNW,290,10.0,15.0,81,0.00,,,-99.99,,2013-01-20 23:03:00,
2013-01-20 17:12:00,13.0,8.0,-100.00,NW,305,10.0,14.0,81,0.00,,,-99.99,,2013-01-20 23:12:00,
2013-01-20 17:23:00,12.0,8.0,-100.00,NW,305,11.0,14.0,81,0.00,,,-99.99,,2013-01-20 23:23:00,
2013-01-20 17:33:00,12.0,7.0,-100.00,WNW,295,11.0,16.0,80,0.00,,,-99.99,,2013-01-20 23:33:00,
2013-01-20 17:42:00,12.0,7.0,-100.00,WNW,295,11.0,16.0,80,0.00,,,-99.99,,2013-01-20 23:42:00,
2013-01-20 17:52:00,12.0,7.0,-100.00,NW,305,9.0,14.0,80,0.00,,,-99.99,,2013-01-20 23:52:00,
2013-01-20 18:03:00,12.0,7.0,-100.00,WNW,295,5.0,11.0,80,0.00,,,-99.99,,2013-01-21 00:03:00,
2013-01-20 18:13:00,12.0,7.0,-100.00,WNW,290,9.0,12.0,80,0.00,,,-99.99,,2013-01-21 00:13:00,
2013-01-20 18:22:00,12.0,7.0,-100.00,WNW,290,7.0,11.0,81,0.00,,,-99.99,,2013-01-21 00:22:00,
2013-01-20 18:33:00,12.0,7.0,-100.00,WNW,285,10.0,16.0,81,0.00,,,-99.99,,2013-01-21 00:33:00,
2013-01-20 18:42:00,12.0,7.0,-100.00,WNW,285,10.0,16.0,81,0.00,,,-99.99,,2013-01-21 00:42:00,
2013-01-20 18:53:00,11.0,7.0,-100.00,WNW,295,6.0,9.0,81,0.00,,,-99.99,,2013-01-21 00:53:00,
2013-01-20 19:03:00,11.0,7.0,-100.00,WNW,295,6.0,9.0,81,0.00,,,-99.99,,2013-01-21 01:03:00,
2013-01-20 19:12:00,11.0,7.0,-100.00,WNW,290,7.0,10.0,81,0.00,,,-99.99,,2013-01-21 01:12:00,
2013-01-20 19:22:00,12.0,7.0,-100.00,WNW,285,7.0,10.0,81,0.00,,,-99.99,,2013-01-21 01:22:00,
2013-01-20 19:33:00,11.0,7.0,-100.00,WNW,285,9.0,11.0,82,0.00,,,-99.99,,2013-01-21 01:33:00,
2013-01-20 19:43:00,11.0,7.0,-100.00,WNW,285,9.0,11.0,82,0.00,,,-99.99,,2013-01-21 01:43:00,
2013-01-20 19:52:00,11.0,7.0,-100.00,West,275,8.0,14.0,83,0.00,,,-99.99,,2013-01-21 01:52:00,
2013-01-20 20:03:00,11.0,7.0,-100.00,West,275,8.0,14.0,83,0.00,,,-99.99,,2013-01-21 02:03:00,
2013-01-20 20:12:00,11.0,7.0,-100.00,West,280,8.0,12.0,83,0.00,,,-99.99,,2013-01-21 02:12:00,
2013-01-20 20:23:00,10.0,6.0,-100.00,West,270,8.0,12.0,83,0.00,,,-99.99,,2013-01-21 02:23:00,
2013-01-20 20:33:00,9.0,6.0,-100.00,West,270,7.0,9.0,84,0.00,,,-99.99,,2013-01-21 02:33:00,
2013-01-20 20:43:00,9.0,6.0,-100.00,West,270,7.0,9.0,84,0.00,,,-99.99,,2013-01-21 02:43:00,
2013-01-20 20:53:00,9.0,6.0,-100.00,West,265,7.0,10.0,85,0.00,,,-99.99,,2013-01-21 02:53:00,
2013-01-20 21:03:00,9.0,6.0,-100.00,West,265,7.0,10.0,85,0.00,,,-99.99,,2013-01-21 03:03:00,
2013-01-20 21:12:00,9.0,6.0,-100.00,West,270,8.0,10.0,85,0.00,,,-99.99,,2013-01-21 03:12:00,
2013-01-20 21:23:00,9.0,5.0,-100.00,West,280,8.0,12.0,85,0.00,,,-99.99,,2013-01-21 03:23:00,
2013-01-20 21:33:00,9.0,6.0,-100.00,WNW,285,14.0,18.0,85,0.00,,,-99.99,,2013-01-21 03:33:00,
2013-01-20 21:43:00,9.0,6.0,-100.00,WNW,285,14.0,18.0,85,0.00,,,-99.99,,2013-01-21 03:43:00,
2013-01-20 21:52:00,9.0,5.0,-100.00,WNW,285,14.0,21.0,85,0.00,,,-99.99,,2013-01-21 03:52:00,
2013-01-20 22:03:00,9.0,5.0,-100.00,WNW,285,14.0,21.0,85,0.00,,,-99.99,,2013-01-21 04:03:00,
2013-01-20 22:12:00,8.0,5.0,-100.00,WNW,295,13.0,18.0,84,0.00,,,-99.99,,2013-01-21 04:12:00,
2013-01-20 22:23:00,8.0,4.0,-100.00,WNW,290,11.0,15.0,84,0.00,,,-99.99,,2013-01-21 04:23:00,
2013-01-20 22:32:00,7.0,4.0,-100.00,West,280,9.0,13.0,84,0.00,,,-99.99,,2013-01-21 04:32:00,
2013-01-20 22:42:00,7.0,4.0,-100.00,West,280,9.0,13.0,84,0.00,,,-99.99,,2013-01-21 04:42:00,
2013-01-20 22:52:00,7.0,3.0,-100.00,West,275,10.0,14.0,84,0.00,,,-99.99,,2013-01-21 04:52:00,
2013-01-20 23:03:00,7.0,3.0,-100.00,West,275,10.0,14.0,84,0.00,,,-99.99,,2013-01-21 05:03:00,
2013-01-20 23:12:00,6.0,3.0,-100.00,West,280,8.0,11.0,84,0.00,,,-99.99,,2013-01-21 05:12:00,
2013-01-20 23:22:00,6.0,2.0,-100.00,West,270,6.0,9.0,85,0.00,,,-99.99,,2013-01-21 05:22:00,
2013-01-20 23:33:00,5.0,2.0,-100.00,West,275,7.0,10.0,85,0.00,,,-99.99,,2013-01-21 05:33:00,
2013-01-20 23:42:00,5.0,2.0,-100.00,West,275,7.0,10.0,85,0.00,,,-99.99,,2013-01-21 05:42:00,
2013-01-20 23:52:00,6.0,2.0,-100.00,WNW,290,11.0,15.0,85,0.00,,,-99.99,,2013-01-21 05:52:00,